This is the latest recevied weather packets stored in our database for station/object W2EH. If no packets are shown the sender has not sent any weather packets the latest 10 day(s).
| Time | Temp. | Humidity | Pressure | Rain* | Wind** | Luminosity | Snow |
|---|---|---|---|---|---|---|---|
| 1777900965 | 17.78° C | 77% | 1013.5 hPa | 0 mm | - | 68 W/m² | - |
| 1777900662 | 17.78° C | 78% | 1013.7 hPa | 0 mm | - | 56 W/m² | - |
| 1777900359 | 17.22° C | 79% | 1014 hPa | 0 mm | - | 51 W/m² | - |
| 1777900056 | 16.67° C | 79% | 1013.7 hPa | 0 mm | - | 32 W/m² | - |
| 1777899752 | 16.67° C | 80% | 1013.6 hPa | 0 mm | - | 26 W/m² | - |
| 1777899449 | 16.67° C | 80% | 1013.7 hPa | 0 mm | - | 22 W/m² | - |
| 1777899147 | 16.67° C | 80% | 1013.6 hPa | 0 mm | - | 20 W/m² | - |
| 1777898845 | 16.67° C | 80% | 1013.6 hPa | 0 mm | - | 19 W/m² | - |
| 1777898542 | 16.11° C | 81% | 1013.4 hPa | 0 mm | - | 19 W/m² | - |
| 1777898239 | 16.11° C | 81% | 1013.4 hPa | 0 mm | - | 18 W/m² | - |
| 1777897936 | 16.11° C | 81% | 1013.8 hPa | 0 mm | - | 13 W/m² | - |
| 1777897632 | 16.11° C | 81% | 1013.7 hPa | 0 mm | - | 11 W/m² | - |
| 1777897328 | 16.11° C | 81% | 1013.5 hPa | 0 mm | - | 9 W/m² | - |
| 1777897024 | 16.11° C | 81% | 1013.4 hPa | 0 mm | - | 9 W/m² | - |
| 1777896722 | 16.11° C | 81% | 1013.2 hPa | 0 mm | - | 8 W/m² | - |
| 1777896418 | 15.56° C | 81% | 1013.1 hPa | 0 mm | - | 6 W/m² | - |
| 1777896116 | 15.56° C | 81% | 1012.8 hPa | 0 mm | - | 5 W/m² | - |
| 1777895814 | 15.56° C | 81% | 1013 hPa | 0 mm | - | 3 W/m² | - |
| 1777895511 | 15.56° C | 81% | 1013 hPa | 0 mm | - | 2 W/m² | - |
| 1777895209 | 15.56° C | 81% | 1012.7 hPa | 0 mm | - | 1 W/m² | - |
| 1777894906 | 15.56° C | 81% | 1013.1 hPa | 0 mm | - | 1 W/m² | - |
| 1777894603 | 15.56° C | 81% | 1013 hPa | 0 mm | - | 0 W/m² | - |
| 1777894300 | 15.56° C | 81% | 1013.2 hPa | 0 mm | - | 0 W/m² | - |
| 1777893997 | 15.56° C | 81% | 1013.3 hPa | 0 mm | - | 0 W/m² | - |
| 1777893693 | 15.56° C | 81% | 1013.1 hPa | 0 mm | - | 0 W/m² | - |
* Rain latest hour (hover to see other rain measurements)
** Current wind speed in m/s (hover to see current wind gust speed)